www.pogodaiklimat.ru

Погода и климат >> Архив погоды >> Казахстан >> Урда


ПОГОДА в Урде

  • Прогноз погоды в Урде
  • Монитор погоды в Урде

АРХИВ ПОГОДЫ в Урде

Время (UTC), дата Ветер
(напр.,м/с)
 
Видим.   Явления Облачность Т
(С)
Тd
(С)
f
(%)
Тe
(С)
Тes
(С)
Комфортность P
(гПа)
Po
(гПа)
Тmin
(С)
Tmax
(С)
R
(мм)
R24
(мм)
S
(см)
09 13.04 ЮЗ 1 10 км 9/9 600 м
[Cb calv]
+19.9 +7.1 43 +22 +23 комфорт 1012.3 1011.8
12 13.04 штиль 0 10 км 9/9 600 м
[Cb calv]
+20.7 +6.7 40 +21 +22 комфорт 1012.6 1012.1
15 13.04 З 2 10 км 9/9
[Cb calv]
+17.9 +7.1 49 +18 +18 1012.9 1012.4 +21.3
18 13.04 З 1 н/о {ливн. осадки} 9/9 600 м
[Cb calv]
+14.3 +8.8 69 +15 +15 1013.2 1012.7 +21.3
21 13.04 СЗ 2 н/о ясно +12.1 +8.9 81 +11 +11 1012.8 1012.3
00 14.04 штиль 0 н/о ясно +10.6 +9.0 90 +10 +10 1012.7 1012.2
03 14.04 штиль 0 10 км 9/0
[Ac trans]
+11.0 +8.8 86 +10 +11 1012.7 1012.2
06 14.04 З 1 10 км ясно +14.6 +8.0 65 +15 +25 1013.2 1012.7 +10.3 1
09 14.04 Ю 1 10 км 9/9 600 м
[Cb calv]
+17.8 +7.3 50 +19 +21 1012.9 1012.4
12 14.04 штиль 0 10 км 8/8 600 м
[Cb calv]
+20.3 +6.7 41 +21 +23 комфорт 1012.3 1011.8
15 14.04 штиль 0 10 км 9/9 600 м
[Cb calv]
+17.8 +7.0 49 +18 +18 1012.6 1012.1 +20.8
18 14.04 Ю 1 н/о {ливн. осадки} 9/0
[Ac cast]
+14.5 +8.1 65 +15 +15 1013.5 1013.0 +20.8
21 14.04 штиль 0 н/о ясно +12.4 +8.6 78 +12 +12 1013.5 1013.0
00 15.04 штиль 0 н/о ясно +11.0 +8.8 86 +10 +10 1013.8 1013.3
03 15.04 Ю 1 10 км 9/0
[Ac lent]
+9.1 +7.1 87 +8 +9 1014.4 1013.9
06 15.04 ЮВ 2 10 км 9/0
[Ac cast]
+13.5 +6.7 63 +13 +16 1015.7 1015.2 +8.8 1
09 15.04 В 4 10 км 9/9 600 м
[Cu med, cong]
+18.6 +6.1 44 +19 +20 1015.9 1015.4
12 15.04 В 5 10 км 9/9 600 м
[Cu med, cong]
+19.0 +5.8 42 +19 +20 1016.0 1015.5
15 15.04 СВ 6 10 км 9/9 1000 м
[Cu med, cong]
+18.0 +6.2 46 +17 +17 1016.0 1015.5 +19.5
18 15.04 СВ 4 н/о 9/0
[Ac lent]
+14.2 +7.0 62 +13 +13 1017.2 1016.7 +19.5
21 15.04 В 3 н/о 9/0
[Ac trans]
+12.4 +7.4 72 +11 +11 1017.3 1016.8
00 16.04 СВ 5 н/о 10/0
[Ac As]
+10.8 +7.7 81 +8 +8 1016.6 1016.1
03 16.04 СВ 2 10 км 9/9 600 м
[Cb calv]
+9.7 +7.0 83 +8 +8 1017.2 1016.7
06 16.04 С 4 10 км 9/0
[Ac trans]
+12.9 +6.4 65 +11 +14 1016.7 1016.2 +9.3
12 16.04 СВ 6 10 км 9/0
[Ci ing]
+17.1 +5.0 45 +16 +19 1014.6 1014.1
15 16.04 СВ 3 10 км 9/0
[Ci fib]
+15.7 +5.8 52 +15 +15 1013.8 1013.3 +17.6
18 16.04 В 5 н/о 9/9 300 м
[Cb calv]
+14.0 +6.2 59 +12 +12 1014.6 1014.1 +17.6
21 16.04 В 4 н/о 9/9 300 м
[Cb calv]
+12.6 +6.5 66 +11 +11 1014.0 1013.5
00 17.04 ЮВ 7 н/о 9/9 600 м
[Cb calv]
+10.6 +7.0 78 +7 +7 1014.0 1013.5
03 17.04 Ю 8 10 км 9/9 600 м
[Cb calv]
+7.4 +4.5 82 +2 +2 1014.9 1014.4
06 17.04 СВ 9 10 км {ливн. осадки} 10/0
[Ac As]
+6.5 +3.7 82 +1 +1 1017.0 1016.5 +7.1
09 17.04 СВ 10 10 км 9/9 600 м
[Cu hum]
+8.3 +3.6 72 +3 +3 1018.0 1017.5
12 17.04 С 18 10 км 9/0
[Ci ing]
+9.4 +3.4 66 +4 +4 1018.7 1018.2
15 17.04 СВ 16 10 км 9/0
[Ci fib]
+7.1 +3.6 78 0 0 1020.0 1019.5 +9.8
18 17.04 С 5
{19}
н/о 1/0
[]
+4.0 +0.9 80 -1 -1 1021.8 1021.3 +9.8 0.4
21 17.04 С 7 н/о ясно +2.7 +0.2 84 -4 -4 1022.2 1021.7
00 18.04 СВ 6 н/о ясно +0.6 -1.1 88 -6 -6 1022.4 1021.9
03 18.04 СВ 9 10 км ясно -0.9 -2.2 91 -9 -9 1024.2 1023.7
06 18.04 СВ 8 10 км ясно +3.9 +1.3 83 -2 -1 1024.9 1024.4 -1.3
09 18.04 СВ 9 10 км пыльный позёмок ясно +7.4 +2.3 70 +2 +4 1024.5 1024.0
12 18.04 СВ 7 10 км пыльный позёмок ясно +8.7 +2.5 65 +5 +7 1024.2 1023.7
15 18.04 В 6 10 км пыльный позёмок ясно +7.4 +1.7 67 +3 +4 1024.2 1023.7 +9.2
18 18.04 В 3 н/о {метель} ясно +2.9 -0.4 79 -1 -1 1025.5 1025.0 +9.2
21 18.04 СВ 2 н/о ясно -0.5 -2.9 84 -4 -4 1015.7 1015.2
00 19.04 СВ 1 н/о ясно -2.8 -4.8 86 -5 -5 1025.3 1024.8
03 19.04 СВ 1 10 км ясно -3.0 -5.0 86 -5 -4 1025.8 1025.3
06 19.04 В 3 10 км ясно +5.9 +1.7 74 +3 +10 1026.2 1025.7 -3.2
12 19.04 СВ 2 10 км 9/0
[Ci fib]
+11.3 +4.0 61 +10 +17 1026.3 1025.8
15 19.04 СВ 1 10 км 9/0
[Ci fib]
+10.4 +4.6 67 +10 +11 1025.0 1024.5 +11.8
18 19.04 штиль 0 н/о ясно +5.0 -1.5 63 +4 +4 1025.9 1025.4 +11.8
21 19.04 штиль 0 н/о ясно +1.0 -1.9 81 0 0 1025.8 1025.3
00 20.04 штиль 0 н/о ясно -1.8 -4.2 84 -3 -3 1025.6 1025.1
06 20.04 С 2 10 км ясно +10.4 +2.7 59 +9 +18 1015.5 1015.0 -2.0

 

Местоположение метеостанции Урда (Западно-Казахстанская область, Казахстан): широта 48.77 долгота 47.43 высота над уровнем моря 4 м.

В архиве по умолчанию представлена погода в Урде за последнюю неделю. Архивные данные за месяц целиком и за предыдущие месяцы, начиная с января 2011 года, Вы можете получить, выбрав интересующий диапазон дат из раскрывающегося списка и нажав кнопку "Ввод!".


*Определитесь, кто Вы:
робот инопланетянин человек

Внимание! Время в таблицах - всемирное. Для получения местного времени необходимо прибавить поправку, которая равна 4 ч.

Смотрите также архив погоды в соседних городах и на ближайших метеорологических станциях:

Погода в Эльтоне (Волгоградская область, Россия) (58 км)
Погода в Верхнем Баскунчаке (Астраханская область, Россия) (80 км)
Погода в Жанибеке (Западно-Казахстанская область, Казахстан) (84 км)
Погода в Жанаказане (Западно-Казахстанская область, Казахстан) (87 км)
Погода в Черный Яр (Астраханская область, Россия) (124 км)
Погода в Жанауштогане (Атырауская область, Казахстан) (140 км)
Погода в Казталовке (Западно-Казахстанская область, Казахстан) (142 км)
Погода в Палласовке (Волгоградская область, Россия) (148 км)
Погода в Харабали (Астраханская область, Россия) (153 км)
Погода в Александровом Гае (Саратовская область, Россия) (174 км)

Пояснения к столбцам:

Ветер - указаны скорость ветра в м/с - средняя за 10 мин, порывы в срок и между сроками (в фигурных скобках) и направление, откуда дует ветер: С - северный, СВ - северо-восточный, В - восточный, ЮВ - юго-восточный, Ю - южный, ЮЗ - юго-западный, З - западный, СЗ - северо-западный.
Видимость - горизонтальная дальность видимости в метрах или километрах. При видимости от 1 до 10 км при отсутствии осадков обычно наблюдается дымка, при ухудшении видимости до 1 км и менее - туман. В сухую погоду видимость может ухудшаться дымом, пылью или мглою.
Явления - указаны атмосферные явления, наблюдавшиеся в срок или в последний час перед сроком; фигурными скобками обозначены явления, наблюдавшиеся между сроками (за 1-3 часа до срока); квадратными скобками обозначены град или гололедные отложения с указанием их диаметра в мм.
Облачность - указаны через наклонную черту общая и нижняя облачность в баллах и высота нижней границы облаков в метрах; квадратными скобками обозначены формы облаков: Ci - перистые, Cs - перисто-слоистые, Cc - перисто-кучевые, Ac - высококучевые, As - высокослоистые, Sc - слоисто-кучевые, Ns - слоисто-дождевые, Cu - кучевые, Cb - кучево-дождевые. Подробнее классификацию облаков см. в Атласе облаков (PDF).
T - Температура воздуха - температура, измеренная на высоте 2 м над землей.
Td - Температура точки росы - температура, при понижении до которой содержащийся в воздухе водяной пар достигнет насыщения.
f - Относительная влажность воздуха - влажноcть воздуха, измеренная на высоте 2 м над землей.
Te - Эффективная температура - температура, которую ощущает одетый по сезону человек в тени. Характеристика душности погоды. При расчете учитывается влияние влажности воздуха и скорости ветра на теплоощущения человека.
Tes - Эффективная температура на солнце - температура, которую ощущает человек, с поправкой на солнечный нагрев. Характеристика знойности погоды. Зависит от высоты солнца над горизонтом, облачности и скорости ветра. Ночью, в пасмурную погоду, а также при ветре 12 м/с и более поправка равна нулю.
P - Атмосферное давление - приведенное к уровню моря атмосферное давление.
Po - Атмосферное давление - измеренное на уровне метеостанции атмосферное давление.
Tmin - Минимальная температура - минимум температуры воздуха на высоте 2 м над землей.
Tmax - Максимальная температура - максимум температуры воздуха на высоте 2 м над землей.
R - Количество осадков - Количество выпавших осадков за период времени, мм. При наведении курсора мыши на число - период времени, за который выпало указанное количество осадков.
R24 - Количество осадков - Количество выпавших осадков за 24 часа, мм.
S - Снежный покров - Высота снежного покрова, см. При наведении курсора мыши на число - состояние снежного покрова и степень покрытия местности в баллах.